Simultaneous Nadir Overpasses (SNOs) Predictions

Prediction of SNOs between NPP and TERRA Satellite Orbit:

Table of predicted SNOs for the next 14.0 days since TLE Epoch: 1/20/2012
Index Date (NPP) Time (NPP) Lat,Lon (NPP) SZA (NPP ) Date (TERRA) Time (TERRA) Lat,Lon (TERRA) SZA (TERRA ) Distance(km) Time Diff (sec)
1 01/21/2012 19:12:21 68.42,-109.59 88.27 01/21/2012 19:13:01 68.41,-109.58 88.25 1.23 40
2 01/21/2012 20:03:02 -68.29, 57.90 91.89 01/21/2012 20:02:31 -68.30, 57.92 91.87 1.94 31
3 01/24/2012 10:38:44 -68.94,-161.85 91.80 01/24/2012 10:39:55 -68.84,-160.80 91.94 43.29 71
4 01/24/2012 11:29:19 68.33, 6.27 87.56 01/24/2012 11:29:29 68.34, 6.22 87.57 2.12 10
5 01/24/2012 12:20:01 -68.24, 173.70 92.54 01/24/2012 12:18:59 -68.23, 173.73 92.55 1.60 62
6 01/27/2012 02:55:38 -68.43, -45.44 92.99 01/27/2012 02:56:29 -68.44, -45.42 92.99 0.95 51
7 01/27/2012 03:46:22 68.30, 122.04 86.87 01/27/2012 03:45:56 68.31, 122.08 86.89 2.42 26
8 01/27/2012 04:36:48 -67.35, -69.47 94.13 01/27/2012 04:35:40 -67.43, -71.30 93.98 79.00 68
9 01/29/2012 18:22:09 68.88, -97.64 86.80 01/29/2012 18:23:20 68.78, -96.73 86.66 38.44 71
10 01/29/2012 19:12:43 -68.35, 70.37 93.77 01/29/2012 19:12:56 -68.35, 70.37 93.77 0.61 13
11 01/29/2012 20:03:27 68.23,-122.15 86.10 01/29/2012 20:02:23 68.22,-122.13 86.10 0.89 64
12 02/01/2012 10:39:11 68.39, 18.71 85.55 02/01/2012 10:39:53 68.40, 18.69 85.56 1.56 42
13 02/01/2012 11:29:53 -68.28,-173.84
